"SCLK","SCET","ORBIT_NUMBER","ALTITUDE","LATITUDE_PLANEOGRAPHIC","LATITUDE_PLANETOCENTRIC","LOCAL_TRUE_SOLAR_TIME","WEST_LONGITUDE","X_SUN_DIR_DISTANCE","RHO_PRP_SUN_DISTANCE","SOLAR_ZENITH_ANGLE","ELECTRON_PLASMA_FREQUENCY","FPE_QUALITY","FPP_VERIFICATION","ELECTRON_PLASMA_DENSITY","ELECTRON_CYCLOTRON_PERIOD","FCP_QUALITY","B_MAGNITUDE"
"1/0365118700.17158",2014-11-26T21:51:44.193,13840,1499.00,44.62,44.35,"00:18:23",109.25,-1.160,0.850,143.48,,,,,3.32e+00,1,1.08e+01
"1/0365118707.52744",2014-11-26T21:51:51.736,13840,1488.00,44.91,44.64,"00:18:30",109.25,-1.150,0.850,143.33,,,,,3.33e+00,1,1.07e+01
"1/0365118805.56807",2014-11-26T21:53:29.798,13840,1352.00,48.78,48.50,"00:29:16",109.21,-1.090,0.870,141.18,,,,,3.33e+00,1,1.07e+01
"1/0365118813.26857",2014-11-26T21:53:37.341,13840,1341.00,49.09,48.81,"00:31:40",109.20,-1.080,0.870,141.00,,,,,3.42e+00,1,1.04e+01
"1/0365118820.62443",2014-11-26T21:53:44.884,13840,1331.00,49.40,49.12,"00:34:05",109.19,-1.080,0.870,140.82,,,,,3.44e+00,1,1.04e+01
"1/0365118828.32559",2014-11-26T21:53:52.428,13840,1321.00,49.70,49.43,"00:34:13",109.19,-1.070,0.880,140.64,,,,,3.27e+00,1,1.09e+01
"1/0365118836.02609",2014-11-26T21:53:59.971,13840,1310.00,50.02,49.74,"00:36:37",109.18,-1.070,0.880,140.45,,,,,3.29e+00,1,1.08e+01
"1/0365118843.38195",2014-11-26T21:54:07.514,13840,1300.00,50.33,50.05,"00:39:02",109.17,-1.060,0.880,140.26,,,,,3.32e+00,1,1.08e+01
"1/0365118851.08245",2014-11-26T21:54:15.057,13840,1290.00,50.64,50.36,"00:41:27",109.16,-1.060,0.880,140.07,,,,,3.41e+00,1,1.05e+01
"1/0365118858.43831",2014-11-26T21:54:22.600,13840,1280.00,50.96,50.68,"00:46:10",109.14,-1.050,0.880,139.88,,,,,3.39e+00,1,1.05e+01
"1/0365118873.49532",2014-11-26T21:54:37.687,13840,1259.00,51.59,51.31,"00:50:59",109.12,-1.040,0.890,139.49,,,,,3.34e+00,1,1.07e+01
"1/0365118881.19582",2014-11-26T21:54:45.230,13840,1249.00,51.91,51.63,"00:53:24",109.11,-1.040,0.890,139.29,,,,,3.45e+00,1,1.03e+01
"1/0365118888.55168",2014-11-26T21:54:52.773,13840,1239.00,52.23,51.95,"00:58:06",109.09,-1.030,0.890,139.09,,,,,3.39e+00,1,1.05e+01
"1/0365118896.25218",2014-11-26T21:55:00.316,13840,1229.00,52.55,52.27,"01:00:31",109.08,-1.030,0.890,138.88,,,,,3.39e+00,1,1.05e+01
"1/0365118903.60870",2014-11-26T21:55:07.860,13840,1219.00,52.87,52.60,"01:05:14",109.06,-1.020,0.890,138.68,,,,,3.41e+00,1,1.05e+01
"1/0365118911.30920",2014-11-26T21:55:15.403,13840,1209.00,53.20,52.92,"01:09:56",109.04,-1.010,0.890,138.47,,,,,3.42e+00,1,1.04e+01
"1/0365118934.06606",2014-11-26T21:55:38.032,13840,1180.00,54.18,53.90,"01:24:03",108.98,-1.000,0.900,137.83,,,,,3.40e+00,1,1.05e+01
"1/0365118941.42258",2014-11-26T21:55:45.576,13840,1170.00,54.51,54.23,"01:28:45",108.96,-0.990,0.900,137.62,,,,,3.42e+00,1,1.04e+01
"1/0365118964.17944",2014-11-26T21:56:08.205,13840,1141.00,55.50,55.23,"01:45:10",108.89,-0.980,0.910,136.96,,,,,3.43e+00,1,1.04e+01
"1/0365118979.23645",2014-11-26T21:56:23.292,13840,1121.00,56.17,55.90,"01:56:52",108.84,-0.960,0.910,136.51,,,,,3.37e+00,1,1.06e+01
"1/0365118986.59231",2014-11-26T21:56:30.835,13840,1112.00,56.51,56.24,"02:03:52",108.81,-0.960,0.910,136.28,,,,,3.42e+00,1,1.04e+01
"1/0365118994.29281",2014-11-26T21:56:38.378,13840,1102.00,56.85,56.58,"02:10:52",108.78,-0.950,0.910,136.05,4.00e+01,1,,1.98e+01,3.40e+00,1,1.05e+01
"1/0365119001.64867",2014-11-26T21:56:45.921,13840,1093.00,57.19,56.92,"02:17:52",108.75,-0.950,0.920,135.81,4.00e+01,1,,1.98e+01,3.42e+00,1,1.04e+01
"1/0365119009.34917",2014-11-26T21:56:53.464,13840,1083.00,57.53,57.27,"02:24:52",108.72,-0.940,0.920,135.58,4.00e+01,1,,1.98e+01,3.39e+00,1,1.05e+01
"1/0365119017.05033",2014-11-26T21:57:01.008,13840,1074.00,57.88,57.61,"02:31:52",108.69,-0.940,0.920,135.34,4.00e+01,1,,1.98e+01,3.37e+00,1,1.06e+01
"1/0365119024.40619",2014-11-26T21:57:08.551,13840,1064.00,58.22,57.96,"02:41:09",108.65,-0.930,0.920,135.10,4.50e+01,1,,2.51e+01,3.39e+00,1,1.05e+01
"1/0365119032.10669",2014-11-26T21:57:16.094,13840,1055.00,58.57,58.30,"02:50:26",108.61,-0.920,0.920,134.86,4.20e+01,1,,2.19e+01,3.37e+00,1,1.06e+01
"1/0365119039.46255",2014-11-26T21:57:23.637,13840,1046.00,58.92,58.65,"02:57:26",108.58,-0.920,0.920,134.62,,,,,3.40e+00,1,1.05e+01
"1/0365119047.16305",2014-11-26T21:57:31.180,13840,1037.00,59.26,59.00,"03:06:44",108.54,-0.910,0.930,134.37,4.20e+01,1,,2.19e+01,3.37e+00,1,1.06e+01
"1/0365119054.51957",2014-11-26T21:57:38.724,13840,1027.00,59.61,59.35,"03:18:18",108.49,-0.910,0.930,134.12,4.60e+01,1,,2.62e+01,3.46e+00,1,1.03e+01
"1/0365119062.22007",2014-11-26T21:57:46.267,13840,1018.00,59.97,59.71,"03:27:36",108.45,-0.900,0.930,133.87,6.10e+01,2,,4.61e+01,,,
"1/0365119069.57593",2014-11-26T21:57:53.810,13840,1009.00,60.32,60.06,"03:39:11",108.40,-0.890,0.930,133.62,7.30e+01,2,,6.61e+01,3.95e+00,1,9.04e+00
"1/0365119077.27643",2014-11-26T21:58:01.353,13840,1000.00,60.67,60.42,"03:48:28",108.36,-0.890,0.930,133.37,8.70e+01,2,,9.39e+01,,,
"1/0365119084.63229",2014-11-26T21:58:08.896,13840,991.00,61.03,60.77,"04:00:03",108.31,-0.880,0.940,133.11,9.70e+01,2,,1.17e+02,,,
"1/0365119092.33344",2014-11-26T21:58:16.440,13840,982.00,61.39,61.13,"04:11:38",108.26,-0.880,0.940,132.85,1.03e+02,2,,1.32e+02,,,
"1/0365119100.03394",2014-11-26T21:58:23.983,13840,973.00,61.75,61.49,"04:25:30",108.20,-0.870,0.940,132.59,1.16e+02,2,,1.67e+02,,,
"1/0365119107.38980",2014-11-26T21:58:31.526,13840,964.00,62.11,61.85,"04:37:05",108.15,-0.860,0.940,132.33,1.22e+02,2,,1.85e+02,,,
"1/0365119115.09030",2014-11-26T21:58:39.069,13840,955.00,62.47,62.22,"04:50:58",108.09,-0.860,0.940,132.07,1.20e+02,2,,1.79e+02,,,
"1/0365119122.44616",2014-11-26T21:58:46.612,13840,946.00,62.83,62.58,"05:07:07",108.02,-0.850,0.950,131.80,1.18e+02,2,,1.73e+02,,,
"1/0365119130.14732",2014-11-26T21:58:54.156,13840,937.00,63.19,62.95,"05:21:00",107.96,-0.850,0.950,131.53,1.30e+02,2,,2.10e+02,,,
"1/0365119137.50318",2014-11-26T21:59:01.699,13840,929.00,63.56,63.31,"05:37:10",107.89,-0.840,0.950,131.26,1.43e+02,2,,2.54e+02,,,
"1/0365119145.20368",2014-11-26T21:59:09.242,13840,920.00,63.93,63.68,"05:53:20",107.82,-0.830,0.950,130.99,1.41e+02,2,,2.47e+02,,,
"1/0365119152.55954",2014-11-26T21:59:16.785,13840,911.00,64.29,64.05,"06:09:30",107.75,-0.830,0.950,130.72,1.39e+02,2,,2.40e+02,,,
"1/0365119160.26004",2014-11-26T21:59:24.328,13840,903.00,64.66,64.43,"06:27:57",107.67,-0.820,0.960,130.44,1.43e+02,2,,2.54e+02,,,
"1/0365119167.61656",2014-11-26T21:59:31.872,13840,894.00,65.04,64.80,"06:44:07",107.60,-0.810,0.960,130.16,1.42e+02,2,,2.50e+02,,,
"1/0365119175.31706",2014-11-26T21:59:39.415,13840,886.00,65.41,65.17,"07:04:52",107.51,-0.810,0.960,129.88,1.33e+02,2,,2.19e+02,,,
"1/0365119183.01756",2014-11-26T21:59:46.958,13840,877.00,65.78,65.55,"07:23:19",107.43,-0.800,0.960,129.60,1.37e+02,2,,2.33e+02,,,
"1/0365119190.37342",2014-11-26T21:59:54.501,13840,869.00,66.16,65.93,"07:46:22",107.33,-0.790,0.970,129.31,1.37e+02,2,,2.33e+02,,,
"1/0365119198.07392",2014-11-26T22:00:02.044,13840,861.00,66.53,66.31,"08:07:07",107.24,-0.790,0.970,129.03,1.40e+02,2,,2.43e+02,,,
"1/0365119205.43043",2014-11-26T22:00:09.588,13840,852.00,66.91,66.69,"08:30:09",107.14,-0.780,0.970,128.74,1.47e+02,2,,2.68e+02,,,
"1/0365119213.13093",2014-11-26T22:00:17.131,13840,844.00,67.29,67.07,"08:53:11",107.04,-0.780,0.970,128.45,1.50e+02,2,,2.79e+02,,,
"1/0365119220.48679",2014-11-26T22:00:24.674,13840,836.00,67.67,67.45,"09:18:31",106.93,-0.770,0.970,128.16,1.54e+02,2,,2.94e+02,,,
"1/0365119228.18729",2014-11-26T22:00:32.217,13840,828.00,68.05,67.83,"09:46:09",106.81,-0.760,0.980,127.86,1.55e+02,2,,2.98e+02,,,
"1/0365119235.54315",2014-11-26T22:00:39.760,13840,820.00,68.44,68.22,"10:13:46",106.69,-0.760,0.980,127.57,1.54e+02,2,,2.94e+02,,,
"1/0365119243.24431",2014-11-26T22:00:47.304,13840,812.00,68.82,68.61,"10:41:24",106.57,-0.750,0.980,127.27,1.55e+02,2,,2.98e+02,,,
"1/0365119250.60017",2014-11-26T22:00:54.847,13840,804.00,69.21,69.00,"11:11:19",106.44,-0.740,0.980,126.97,1.55e+02,2,,2.98e+02,,,
"1/0365119258.30067",2014-11-26T22:01:02.390,13840,796.00,69.59,69.39,"11:43:31",106.30,-0.740,0.980,126.67,1.59e+02,2,,3.14e+02,,,
"1/0365119266.00117",2014-11-26T22:01:09.933,13840,788.00,69.98,69.78,"12:15:44",106.16,-0.730,0.990,126.36,1.56e+02,2,,3.02e+02,,,
"1/0365119273.35769",2014-11-26T22:01:17.477,13840,780.00,70.37,70.17,"12:52:31",106.00,-0.720,0.990,126.06,1.59e+02,2,,3.14e+02,,,
"1/0365119281.05819",2014-11-26T22:01:25.020,13840,773.00,70.76,70.56,"13:29:19",105.84,-0.720,0.990,125.75,1.58e+02,2,,3.10e+02,,,
"1/0365119288.41405",2014-11-26T22:01:32.563,13840,765.00,71.15,70.96,"14:06:06",105.68,-0.710,0.990,125.44,1.55e+02,2,,2.98e+02,,,
"1/0365119296.11455",2014-11-26T22:01:40.106,13840,758.00,71.55,71.35,"14:47:29",105.50,-0.700,0.990,125.13,1.58e+02,2,,3.10e+02,,,
"1/0365119303.47041",2014-11-26T22:01:47.649,13840,750.00,71.94,71.75,"15:31:09",105.31,-0.700,1.000,124.81,1.54e+02,2,,2.94e+02,,,
"1/0365119311.17156",2014-11-26T22:01:55.193,13840,743.00,72.34,72.15,"16:14:49",105.12,-0.690,1.000,124.50,1.54e+02,2,,2.94e+02,,,
"1/0365119318.52742",2014-11-26T22:02:02.736,13840,735.00,72.73,72.55,"17:03:04",104.91,-0.680,1.000,124.18,1.56e+02,2,,3.02e+02,,,
"1/0365119326.22792",2014-11-26T22:02:10.279,13840,728.00,73.13,72.95,"17:53:36",104.69,-0.680,1.000,123.86,1.57e+02,2,,3.06e+02,,,
"1/0365119333.58378",2014-11-26T22:02:17.822,13840,721.00,73.53,73.35,"18:46:26",104.46,-0.670,1.000,123.54,1.58e+02,2,,3.10e+02,,,
"1/0365119341.28428",2014-11-26T22:02:25.365,13840,713.00,73.93,73.76,"19:43:52",104.21,-0.660,1.010,123.22,1.60e+02,2,,3.17e+02,,,
"1/0365119348.64080",2014-11-26T22:02:32.909,13840,706.00,74.33,74.16,"20:43:34",103.95,-0.650,1.010,122.89,1.66e+02,2,,3.42e+02,,,
"1/0365119356.34130",2014-11-26T22:02:40.452,13840,699.00,74.73,74.56,"21:45:34",103.68,-0.650,1.010,122.57,1.67e+02,2,,3.46e+02,,,
"1/0365119364.04180",2014-11-26T22:02:47.995,13840,692.00,75.13,74.97,"22:54:27",103.38,-0.640,1.010,122.24,1.59e+02,2,,3.14e+02,,,
"1/0365119371.39766",2014-11-26T22:02:55.538,13840,685.00,75.54,75.38,"00:05:37",103.07,-0.630,1.010,121.91,1.56e+02,2,,3.02e+02,,,
"1/0365119379.09816",2014-11-26T22:03:03.081,13840,678.00,75.94,75.79,"01:21:22",102.74,-0.630,1.020,121.58,1.66e+02,2,,3.42e+02,,,
"1/0365119386.45468",2014-11-26T22:03:10.625,13840,671.00,76.35,76.19,"02:44:00",102.38,-0.620,1.020,121.25,1.60e+02,2,,3.17e+02,,,
"1/0365119394.15518",2014-11-26T22:03:18.168,13840,665.00,76.75,76.60,"04:11:13",102.00,-0.610,1.020,120.91,1.56e+02,2,,3.02e+02,,,
"1/0365119401.51104",2014-11-26T22:03:25.711,13840,658.00,77.16,77.01,"05:43:00",101.60,-0.610,1.020,120.57,1.49e+02,2,,2.75e+02,,,
"1/0365119409.21154",2014-11-26T22:03:33.254,13840,651.00,77.56,77.43,"07:23:58",101.16,-0.600,1.020,120.23,1.55e+02,2,,2.98e+02,,,
"1/0365119416.56740",2014-11-26T22:03:40.797,13840,645.00,77.97,77.84,"09:11:48",100.69,-0.590,1.030,119.89,1.64e+02,2,,3.34e+02,,,
"1/0365119424.26855",2014-11-26T22:03:48.341,13840,638.00,78.38,78.25,"11:06:31",100.19,-0.580,1.030,119.55,1.76e+02,2,,3.84e+02,,,
"1/0365119431.62441",2014-11-26T22:03:55.884,13840,632.00,78.79,78.66,"13:12:42",99.64,-0.580,1.030,119.21,2.14e+02,2,,5.68e+02,,,
"1/0365119439.32491",2014-11-26T22:04:03.427,13840,625.00,79.20,79.07,"15:28:02",99.05,-0.570,1.030,118.86,1.71e+02,2,,3.63e+02,,,
"1/0365119447.02541",2014-11-26T22:04:10.970,13840,619.00,79.60,79.48,"17:54:50",98.41,-0.560,1.030,118.52,1.83e+02,2,,4.15e+02,,,
"1/0365119454.38127",2014-11-26T22:04:18.513,13840,613.00,80.01,79.90,"20:33:06",97.72,-0.560,1.030,118.17,1.82e+02,2,,4.11e+02,,,
"1/0365119462.08243",2014-11-26T22:04:26.057,13840,607.00,80.42,80.31,"23:27:24",96.96,-0.550,1.040,117.82,1.80e+02,2,,4.02e+02,,,
"1/0365119469.43829",2014-11-26T22:04:33.600,13840,601.00,80.82,80.72,"02:37:44",96.13,-0.540,1.040,117.47,1.75e+02,2,,3.80e+02,,,
"1/0365119477.13879",2014-11-26T22:04:41.143,13840,595.00,81.23,81.13,"06:08:43",95.21,-0.530,1.040,117.11,1.65e+02,2,,3.38e+02,,,
"1/0365119484.49465",2014-11-26T22:04:48.686,13840,589.00,81.63,81.54,"09:58:01",94.21,-0.530,1.040,116.76,1.75e+02,2,,3.80e+02,,,
"1/0365119492.19515",2014-11-26T22:04:56.229,13840,583.00,82.04,81.94,"14:14:49",93.09,-0.520,1.040,116.40,1.89e+02,2,,4.43e+02,,,
"1/0365119499.55167",2014-11-26T22:05:03.773,13840,577.00,82.44,82.35,"18:59:08",91.85,-0.510,1.040,116.04,1.93e+02,2,,4.62e+02,,,
"1/0365119507.25217",2014-11-26T22:05:11.316,13840,572.00,82.83,82.75,"00:15:32",90.47,-0.500,1.050,115.68,1.77e+02,2,,3.89e+02,,,
"1/0365119514.60803",2014-11-26T22:05:18.859,13840,566.00,83.23,83.14,"06:10:53",88.92,-0.500,1.050,115.32,1.69e+02,2,,3.54e+02,,,
"1/0365119522.30853",2014-11-26T22:05:26.402,13840,560.00,83.61,83.54,"12:52:04",87.17,-0.490,1.050,114.96,1.78e+02,2,,3.93e+02,,,
"1/0365119530.00903",2014-11-26T22:05:33.945,13840,555.00,84.00,83.92,"20:28:16",85.18,-0.480,1.050,114.59,1.85e+02,2,,4.24e+02,,,
"1/0365119537.36554",2014-11-26T22:05:41.489,13840,550.00,84.37,84.30,"05:06:21",82.92,-0.470,1.050,114.23,1.94e+02,2,,4.67e+02,,,
"1/0365119545.06604",2014-11-26T22:05:49.032,13840,544.00,84.74,84.67,"14:57:46",80.34,-0.470,1.050,113.86,1.95e+02,2,,4.72e+02,,,
"1/0365119552.42190",2014-11-26T22:05:56.575,13840,539.00,85.09,85.03,"02:20:51",77.36,-0.460,1.060,113.49,1.88e+02,2,,4.38e+02,,,
"1/0365119560.12240",2014-11-26T22:06:04.118,13840,534.00,85.43,85.37,"15:31:39",73.91,-0.450,1.060,113.12,2.04e+02,2,,5.16e+02,,,
"1/0365119567.47826",2014-11-26T22:06:11.661,13840,529.00,85.75,85.70,"06:46:13",69.92,-0.440,1.060,112.75,2.00e+02,2,,4.96e+02,,,
"1/0365119575.17942",2014-11-26T22:06:19.205,13840,524.00,86.05,86.00,"00:29:45",65.28,-0.440,1.060,112.38,1.95e+02,2,,4.72e+02,3.95e+00,1,9.04e+00
"1/0365119582.53528",2014-11-26T22:06:26.748,13840,519.00,86.32,86.27,"21:00:35",59.91,-0.430,1.060,112.01,2.27e+02,2,,6.39e+02,,,
"1/0365119590.23578",2014-11-26T22:06:34.291,13840,514.00,86.55,86.50,"20:34:46",53.74,-0.420,1.060,111.63,2.38e+02,2,,7.02e+02,,,
"1/0365119597.59164",2014-11-26T22:06:41.834,13840,509.00,86.73,86.69,"23:14:35",46.76,-0.410,1.070,111.25,2.44e+02,2,,7.38e+02,,,
"1/0365119605.29214",2014-11-26T22:06:49.377,13840,505.00,86.87,86.83,"04:41:43",39.05,-0.410,1.070,110.87,2.68e+02,2,,8.91e+02,,,
"1/0365119612.64866",2014-11-26T22:06:56.921,13840,500.00,86.94,86.90,"12:10:18",30.81,-0.400,1.070,110.50,2.51e+02,2,,7.81e+02,,,
"1/0365119620.34916",2014-11-26T22:07:04.464,13840,496.00,86.94,86.90,"20:31:36",22.34,-0.390,1.070,110.11,2.53e+02,2,,7.94e+02,,,
"1/0365119628.04966",2014-11-26T22:07:12.007,13840,491.00,86.88,86.84,"04:20:49",14.01,-0.380,1.070,109.73,2.53e+02,2,,7.94e+02,,,
"1/0365119635.40552",2014-11-26T22:07:19.550,13840,487.00,86.75,86.71,"10:22:20",6.15,-0.380,1.070,109.35,2.69e+02,2,,8.97e+02,3.85e+00,1,9.28e+00
"1/0365119643.10602",2014-11-26T22:07:27.093,13840,483.00,86.57,86.53,"06:37:29",358.99,-0.370,1.070,108.96,2.76e+02,2,,9.45e+02,3.71e+00,1,9.64e+00
"1/0365119650.46253",2014-11-26T22:07:34.637,13840,479.00,86.34,86.29,"06:57:30",352.62,-0.360,1.080,108.58,2.82e+02,2,,9.86e+02,3.59e+00,1,9.95e+00
"1/0365119658.16303",2014-11-26T22:07:42.180,13840,475.00,86.07,86.02,"04:09:35",347.07,-0.350,1.080,108.19,2.66e+02,2,,8.77e+02,3.50e+00,1,1.02e+01
"1/0365119665.51889",2014-11-26T22:07:49.723,13840,471.00,85.77,85.71,"22:32:05",342.26,-0.350,1.080,107.80,2.83e+02,2,,9.93e+02,3.35e+00,1,1.07e+01
"1/0365119673.21939",2014-11-26T22:07:57.266,13840,467.00,85.43,85.38,"14:21:01",338.12,-0.340,1.080,107.42,2.85e+02,2,,1.01e+03,3.31e+00,1,1.08e+01
"1/0365119680.57525",2014-11-26T22:08:04.809,13840,463.00,85.08,85.02,"03:59:19",334.55,-0.330,1.080,107.02,3.11e+02,2,,1.20e+03,2.71e+00,1,1.32e+01
"1/0365119688.27641",2014-11-26T22:08:12.353,13840,459.00,84.71,84.65,"15:47:37",331.46,-0.320,1.080,106.63,3.34e+02,2,,1.38e+03,,,
"1/0365119695.63227",2014-11-26T22:08:19.896,13840,455.00,84.33,84.26,"01:59:40",328.79,-0.310,1.080,106.24,3.65e+02,2,,1.65e+03,2.93e+00,1,1.22e+01
"1/0365119703.33277",2014-11-26T22:08:27.439,13840,452.00,83.93,83.86,"10:56:04",326.45,-0.310,1.080,105.85,3.18e+02,2,,1.25e+03,,,
"1/0365119711.03327",2014-11-26T22:08:34.982,13840,448.00,83.53,83.45,"18:43:44",324.41,-0.300,1.090,105.45,3.20e+02,2,,1.27e+03,3.23e+00,1,1.10e+01
"1/0365119718.38913",2014-11-26T22:08:42.525,13840,445.00,83.11,83.03,"01:36:23",322.61,-0.290,1.090,105.06,3.31e+02,2,,1.36e+03,,,
"1/0365119726.09029",2014-11-26T22:08:50.069,13840,442.00,82.69,82.60,"07:43:12",321.01,-0.280,1.090,104.66,3.34e+02,2,,1.38e+03,,,
"1/0365119733.44615",2014-11-26T22:08:57.612,13840,439.00,82.26,82.17,"13:08:46",319.59,-0.270,1.090,104.26,3.39e+02,2,,1.43e+03,,,
"1/0365119741.14665",2014-11-26T22:09:05.155,13840,436.00,81.83,81.73,"18:02:14",318.31,-0.270,1.090,103.87,3.74e+02,2,,1.73e+03,,,
"1/0365119748.50251",2014-11-26T22:09:12.698,13840,433.00,81.40,81.29,"22:23:38",317.17,-0.260,1.090,103.47,3.94e+02,2,,1.93e+03,,,
"1/0365119756.20301",2014-11-26T22:09:20.241,13840,430.00,80.96,80.85,"02:19:48",316.14,-0.250,1.090,103.07,3.92e+02,2,,1.91e+03,,,
"1/0365119763.55952",2014-11-26T22:09:27.785,13840,427.00,80.51,80.40,"05:55:22",315.20,-0.240,1.090,102.67,3.75e+02,2,,1.74e+03,,,
"1/0365119771.26002",2014-11-26T22:09:35.328,13840,424.00,80.07,79.95,"09:10:17",314.35,-0.240,1.090,102.26,3.73e+02,2,,1.73e+03,,,
"1/0365119778.61588",2014-11-26T22:09:42.871,13840,421.00,79.62,79.49,"12:06:53",313.58,-0.230,1.090,101.86,3.76e+02,2,,1.75e+03,,,
"1/0365119786.31638",2014-11-26T22:09:50.414,13840,419.00,79.16,79.03,"14:52:01",312.86,-0.220,1.100,101.46,3.73e+02,2,,1.73e+03,,,
"1/0365119794.01688",2014-11-26T22:09:57.957,13840,416.00,78.71,78.57,"17:21:07",312.21,-0.210,1.100,101.05,4.10e+02,2,,2.08e+03,,,
"1/0365119801.37340",2014-11-26T22:10:05.501,13840,414.00,78.25,78.11,"19:38:44",311.61,-0.200,1.100,100.65,4.04e+02,2,,2.02e+03,,,
"1/0365119809.07390",2014-11-26T22:10:13.044,13840,412.00,77.80,77.65,"21:47:12",311.05,-0.200,1.100,100.24,3.84e+02,2,,1.83e+03,,,
"1/0365119816.42976",2014-11-26T22:10:20.587,13840,410.00,77.34,77.18,"23:44:13",310.54,-0.190,1.100,99.84,3.92e+02,2,,1.91e+03,,,
"1/0365119824.13026",2014-11-26T22:10:28.130,13840,407.00,76.87,76.72,"01:34:20",310.06,-0.180,1.100,99.43,3.55e+02,2,,1.56e+03,,,
"1/0365119831.48678",2014-11-26T22:10:35.674,13840,405.00,76.41,76.25,"03:15:18",309.62,-0.170,1.100,99.02,3.67e+02,2,,1.67e+03,,,
"1/0365119839.18728",2014-11-26T22:10:43.217,13840,404.00,75.95,75.78,"04:51:41",309.20,-0.160,1.100,98.61,3.87e+02,2,,1.86e+03,,,
"1/0365119846.54314",2014-11-26T22:10:50.760,13840,402.00,75.48,75.31,"06:18:54",308.82,-0.160,1.100,98.21,4.26e+02,2,,2.25e+03,,,
"1/0365119854.24364",2014-11-26T22:10:58.303,13840,400.00,75.01,74.84,"07:41:31",308.46,-0.150,1.100,97.80,4.35e+02,2,,2.35e+03,,,
"1/0365119861.59950",2014-11-26T22:11:05.846,13840,398.00,74.55,74.37,"08:59:34",308.12,-0.140,1.100,97.39,4.26e+02,2,,2.25e+03,2.70e+00,2,1.32e+01
"1/0365119869.30065",2014-11-26T22:11:13.390,13840,397.00,74.08,73.89,"10:13:02",307.80,-0.130,1.100,96.98,4.35e+02,2,,2.35e+03,2.77e+00,1,1.29e+01
"1/0365119877.00115",2014-11-26T22:11:20.933,13840,395.00,73.61,73.42,"11:21:54",307.50,-0.120,1.100,96.57,4.30e+02,2,,2.29e+03,2.56e+00,1,1.39e+01
"1/0365119884.35701",2014-11-26T22:11:28.476,13840,394.00,73.14,72.94,"12:26:12",307.22,-0.120,1.100,96.15,4.54e+02,2,,2.56e+03,2.51e+00,1,1.42e+01
"1/0365119892.05751",2014-11-26T22:11:36.019,13840,393.00,72.67,72.47,"13:25:55",306.96,-0.110,1.100,95.74,3.94e+02,2,,1.93e+03,,,
"1/0365119899.41337",2014-11-26T22:11:43.562,13840,392.00,72.19,71.99,"14:23:20",306.71,-0.100,1.100,95.33,4.57e+02,2,,2.59e+03,,,
"1/0365119907.11453",2014-11-26T22:11:51.106,13840,391.00,71.72,71.51,"15:18:27",306.47,-0.090,1.110,94.92,4.68e+02,2,,2.72e+03,,,
"1/0365119914.47039",2014-11-26T22:11:58.649,13840,390.00,71.25,71.03,"16:09:00",306.25,-0.080,1.110,94.51,4.63e+02,2,,2.66e+03,,,
"1/0365119922.17089",2014-11-26T22:12:06.192,13840,389.00,70.77,70.56,"16:57:15",306.04,-0.080,1.110,94.09,5.06e+02,2,,3.18e+03,,,
"1/0365119929.52675",2014-11-26T22:12:13.735,13840,388.00,70.30,70.08,"17:43:12",305.84,-0.070,1.110,93.68,5.07e+02,2,,3.19e+03,,,
"1/0365119937.22725",2014-11-26T22:12:21.278,13840,387.00,69.83,69.60,"18:26:52",305.65,-0.060,1.110,93.26,5.09e+02,2,,3.21e+03,,,
"1/0365119944.58377",2014-11-26T22:12:28.822,13840,387.00,69.35,69.12,"19:08:15",305.47,-0.050,1.110,92.85,5.11e+02,2,,3.24e+03,,,
"1/0365119952.28427",2014-11-26T22:12:36.365,13840,386.00,68.87,68.64,"19:47:20",305.30,-0.040,1.110,92.44,5.25e+02,2,,3.42e+03,,,
"1/0365119959.64013",2014-11-26T22:12:43.908,13840,386.00,68.40,68.16,"20:26:25",305.13,-0.030,1.110,92.02,5.49e+02,2,,3.74e+03,,,
"1/0365119967.34063",2014-11-26T22:12:51.451,13840,386.00,67.92,67.68,"21:00:55",304.98,-0.030,1.110,91.61,5.05e+02,2,,3.16e+03,,,
"1/0365119975.04113",2014-11-26T22:12:58.994,13840,386.00,67.44,67.19,"21:35:25",304.83,-0.020,1.110,91.19,5.14e+02,2,,3.28e+03,,,
"1/0365119982.39764",2014-11-26T22:13:06.538,13840,385.00,66.97,66.71,"22:07:37",304.69,-0.010,1.110,90.78,5.19e+02,2,,3.34e+03,,,
"1/0365119990.09814",2014-11-26T22:13:14.081,13840,385.00,66.49,66.23,"22:37:32",304.56,-0.000,1.110,90.36,5.19e+02,2,,3.34e+03,,,
"1/0365119997.45400",2014-11-26T22:13:21.624,13840,386.00,66.01,65.75,"23:07:27",304.43,0.010,1.110,89.95,5.06e+02,2,,3.18e+03,,,
"1/0365120005.15450",2014-11-26T22:13:29.167,13840,386.00,65.53,65.27,"23:35:05",304.31,0.010,1.110,89.53,5.23e+02,2,,3.39e+03,,,
"1/0365120012.51036",2014-11-26T22:13:36.710,13840,386.00,65.06,64.79,"00:02:42",304.19,0.020,1.110,89.12,5.25e+02,2,,3.42e+03,,,
"1/0365120020.21152",2014-11-26T22:13:44.254,13840,386.00,64.58,64.31,"00:28:02",304.08,0.030,1.110,88.71,5.32e+02,2,,3.51e+03,,,
"1/0365120027.56738",2014-11-26T22:13:51.797,13840,387.00,64.10,63.82,"00:51:05",303.98,0.040,1.110,88.29,5.32e+02,2,,3.51e+03,,,
"1/0365120035.26788",2014-11-26T22:13:59.340,13840,388.00,63.62,63.34,"01:14:07",303.88,0.050,1.110,87.88,5.17e+02,2,,3.31e+03,,,
"1/0365120042.62374",2014-11-26T22:14:06.883,13840,388.00,63.14,62.86,"01:37:10",303.78,0.050,1.110,87.46,5.12e+02,2,,3.25e+03,,,
"1/0365120050.32424",2014-11-26T22:14:14.426,13840,389.00,62.67,62.38,"01:57:54",303.69,0.060,1.110,87.05,4.98e+02,2,,3.08e+03,,,
"1/0365120058.02540",2014-11-26T22:14:21.970,13840,390.00,62.19,61.90,"02:18:39",303.60,0.070,1.110,86.63,4.91e+02,2,,2.99e+03,2.40e+00,1,1.49e+01
"1/0365120065.38126",2014-11-26T22:14:29.513,13840,391.00,61.71,61.42,"02:39:24",303.51,0.080,1.110,86.22,4.59e+02,2,,2.61e+03,2.32e+00,2,1.54e+01
"1/0365120073.08176",2014-11-26T22:14:37.056,13840,392.00,61.23,60.94,"02:57:52",303.43,0.090,1.110,85.81,4.65e+02,2,,2.68e+03,2.27e+00,1,1.57e+01
"1/0365120080.43762",2014-11-26T22:14:44.599,13840,393.00,60.76,60.46,"03:16:19",303.35,0.090,1.110,85.39,4.77e+02,2,,2.82e+03,1.92e+00,2,1.86e+01
"1/0365120088.13812",2014-11-26T22:14:52.142,13840,394.00,60.28,59.98,"03:32:29",303.28,0.100,1.110,84.98,5.00e+02,2,,3.10e+03,1.73e+00,1,2.07e+01
"1/0365120095.49463",2014-11-26T22:14:59.686,13840,396.00,59.80,59.49,"03:48:39",303.21,0.110,1.110,84.57,5.19e+02,2,,3.34e+03,,,
"1/0365120103.19513",2014-11-26T22:15:07.229,13840,397.00,59.32,59.02,"04:04:49",303.14,0.120,1.110,84.16,5.45e+02,2,,3.68e+03,,,
"1/0365120110.55099",2014-11-26T22:15:14.772,13840,399.00,58.85,58.54,"04:20:59",303.07,0.130,1.110,83.74,4.69e+02,2,,2.73e+03,,,
"1/0365120118.25149",2014-11-26T22:15:22.315,13840,400.00,58.37,58.06,"04:34:51",303.01,0.130,1.100,83.33,4.35e+02,2,,2.35e+03,,,
"1/0365120125.60735",2014-11-26T22:15:29.858,13840,402.00,57.89,57.58,"04:48:44",302.95,0.140,1.100,82.92,4.05e+02,2,,2.03e+03,,,
"1/0365120133.30851",2014-11-26T22:15:37.402,13840,404.00,57.42,57.10,"05:02:36",302.89,0.150,1.100,82.51,3.81e+02,2,,1.80e+03,,,
"1/0365120141.00901",2014-11-26T22:15:44.945,13840,406.00,56.94,56.62,"05:16:28",302.83,0.160,1.100,82.10,3.73e+02,2,,1.73e+03,,,